Lid_Strength_Index
3 4 4 4 4 4 4 4 4 3 3 3 3 3 3 2 2 5 7 6 9 12 10 8 8 11 11 11 14 11 12 11 12 14 14 14 15 13 14 13 14 16 17 18 16 18 19 15 14 16 15 14 15 16
3 3 4 4 4 3 3 3 3 3 3 3 3 2 2 2 2 4 8 6 7 10 10 8 8 8 8 8 10 9 11 11 13 13 12 12 15 14 15 19 12 17 15 17 17 19 16 14 14 13 13 14 15 16
3 3 3 3 3 3 3 3 3 3 3 3 2 2 2 2 2 4 7 8 9 12 11 10 9 6 5 6 6 10 9 8 9 9 11 11 13 11 14 16 15 14 12 17 17 16 15 14 14 14 14 15 14 15
2 3 3 3 3 3 3 3 3 3 3 3 3 2 3 3 3 4 7 7 8 10 14 11 6 7 5 4 6 6 6 7 7 8 11 13 12 9 13 14 16 15 14 16 16 15 15 14 14 14 14 14 15 15
2 2 3 3 2 2 2 3 3 3 3 2 3 3 3 3 3 5 7 7 6 10 14 12 8 6 5 5 5 6 6 8 10 11 12 10 9 10 13 13 16 13 15 18 17 15 15 16 14 13 15 15 15 15
2 2 2 2 2 3 3 3 3 2 2 3 3 3 2 3 4 8 11 6 5 7 12 15 9 8 6 6 6 6 6 8 9 10 11 10 6 11 15 17 13 14 12 13 14 13 14 14 14 13 15 15 15 16
2 2 2 2 3 2 3 3 2 2 2 2 3 2 2 3 5 8 10 4 3 6 11 15 13 7 5 6 7 7 7 8 8 10 10 8 8 11 16 18 13 13 14 13 13 13 15 14 15 14 14 14 14 16
2 2 2 3 2 3 2 2 2 2 2 2 2 2 2 3 5 7 6 2 4 8 8 15 13 9 5 9 10 7 9 9 9 10 10 9 9 14 17 14 12 12 12 13 13 12 14 14 14 14 14 16 17 18
2 2 2 3 3 3 3 3 2 2 2 2 2 3 6 7 9 8 2 3 5 8 13 14 16 13 7 9 9 9 9 14 9 11 10 8 12 16 17 13 13 13 13 13 13 13 13 14 15 16 16 16 17 18
2 2 2 2 3 3 3 2 2 2 2 3 5 9 11 8 3 2 6 11 11 10 7 13 12 14 9 12 12 11 11 12 12 10 9 12 14 12 13 13 12 11 12 12 14 14 14 15 16 16 16 16 17 18
2 2 2 2 2 2 2 2 2 2 3 7 8 8 5 2 5 7 10 11 12 13 11 12 11 14 9 13 12 10 13 12 14 11 11 13 15 14 12 11 10 10 10 11 12 13 13 14 16 17 17 17 18 19
2 3 2 2 2 2 2 2 2 5 7 6 5 4 5 7 9 10 12 12 12 14 13 13 12 10 10 8 12 11 13 13 15 8 11 15 16 12 12 13 12 12 12 13 13 14 15 15 15 16 18 19 21 22
2 3 3 2 2 2 2 2 3 3 3 4 6 8 10 9 13 13 18 14 18 13 12 13 14 11 11 10 13 12 16 17 10 13 13 16 14 13 13 14 14 14 14 14 15 15 16 17 18 19 22 26 24 25
2 2 2 2 2 2 2 2 3 4 5 8 10 13 12 14 12 16 16 16 13 13 12 12 13 12 13 12 15 17 13 10 17 17 16 17 14 14 14 14 15 17 17 17 19 19 21 22 25 27 26 28 26 28
2 2 2 2 2 2 3 3 4 6 8 10 10 14 13 12 10 9 8 9 11 12 11 12 12 12 14 11 10 12 14 15 16 18 18 16 14 14 15 16 18 19 20 21 22 23 25 25 25 28 30 30 28 30
2 3 4 2 2 2 3 5 6 6 8 9 10 11 9 10 10 9 8 9 8 10 12 10 12 15 13 15 11 15 16 17 17 18 15 15 15 16 17 17 18 20 20 22 22 23 24 25 24 25 28 29 31 29
3 7 2 2 2 3 3 7 9 10 10 11 10 10 8 8 9 9 8 8 8 11 14 11 16 15 12 13 13 14 18 15 14 13 13 13 15 18 19 19 19 20 21 22 23 23 25 26 25 23 23 25 24 23
7 3 2 2 3 5 7 8 8 9 11 10 11 10 8 7 7 8 8 7 7 9 11 12 9 11 12 15 17 17 16 13 12 13 13 14 16 19 18 20 20 20 21 22 22 23 23 23 21 21 19 19 19 19
3 2 1 2 5 9 13 10 8 12 10 9 9 9 8 8 8 8 8 7 7 7 10 12 12 14 16 14 14 18 20 17 15 15 15 14 15 17 19 19 20 20 20 21 19 19 19 18 18 18 18 17 20 20
1 1 1 2 3 9 10 10 7 9 12 13 9 9 9 9 9 8 8 8 8 8 10 12 14 15 14 14 14 15 17 16 15 16 17 17 16 17 18 18 18 18 18 18 17 18 18 18 18 18 19 19 22 23
2 2 2 4 7 6 7 8 9 9 10 11 8 8 10 9 9 9 9 8 9 9 13 14 16 17 16 14 13 13 14 14 16 16 18 18 17 16 17 17 17 17 18 19 19 21 20 19 19 19 25 26 26 24
3 3 6 6 9 8 8 7 7 8 10 9 8 9 14 13 15 11 10 11 10 12 13 14 14 14 14 13 14 12 13 13 14 15 16 15 17 16 16 17 17 20 19 20 19 20 21 20 20 21 24 27 25 25
3 5 8 7 10 10 11 6 9 10 13 10 9 12 15 15 13 9 12 10 11 13 13 13 12 10 11 12 12 12 11 13 14 15 15 15 16 17 17 18 18 20 21 20 18 20 23 22 22 23 24 26 28 29
4 9 10 12 10 16 10 10 8 9 12 12 11 12 13 13 9 12 12 13 14 16 14 13 12 13 13 12 14 14 13 13 15 17 15 16 17 17 17 17 18 17 18 17 18 20 20 22 22 23 28 29 31 31
13 15 10 14 10 12 14 14 12 12 17 11 12 15 11 11 15 13 14 14 14 18 18 15 14 13 15 18 17 16 14 13 15 16 18 16 17 16 17 18 19 19 17 19 21 21 25 26 28 28 29 30 28 30
15 16 12 12 16 14 13 16 16 16 13 15 17 14 16 12 14 16 14 16 11 16 12 12 16 14 14 14 15 15 15 13 13 16 16 15 15 17 19 19 20 21 20 19 19 21 24 27 28 27 29 28 30 31
13 13 12 9 11 11 15 15 12 14 13 14 13 17 18 17 18 16 17 15 12 11 11 10 10 11 12 13 14 14 14 15 16 16 18 18 18 17 16 18 19 21 24 21 22 22 24 25 26 27 27 32 32 32
14 14 14 12 12 13 15 17 17 18 18 14 15 18 17 16 17 20 19 16 13 11 12 12 12 13 14 15 15 17 18 18 18 18 18 19 20 20 20 20 21 21 25 26 25 24 24 25 26 27 27 29 32 34
17 17 15 17 16 14 14 16 16 17 16 16 17 20 20 20 22 22 20 17 13 13 16 17 16 15 16 16 16 17 17 16 16 19 20 22 22 22 24 23 24 25 24 23 21 24 25 25 27 27 28 29 32 33
18 15 17 19 15 15 19 19 20 20 20 19 18 18 20 22 23 22 19 19 18 22 23 21 18 15 17 18 18 19 18 18 17 17 19 21 21 22 24 24 25 25 24 23 23 23 22 26 26 31 31 33 35 38
13 14 16 18 20 21 20 18 17 16 20 21 22 22 23 25 23 23 22 21 20 19 17 17 17 17 17 18 18 18 20 19 18 19 20 20 21 23 24 24 24 24 24 25 26 27 29 31 30 32 33 36 39 41
14 14 17 19 20 18 16 16 16 17 21 21 22 26 25 25 23 24 21 21 19 19 20 18 18 20 18 17 18 18 18 19 19 20 20 20 22 23 23 24 24 25 26 27 28 30 30 31 32 34 36 40 42 43
16 18 18 18 18 19 18 17 17 19 20 23 25 27 25 23 23 23 20 20 20 20 20 19 18 18 19 19 19 19 19 19 18 18 20 21 22 23 23 24 25 26 27 30 31 31 31 32 35 39 40 42 44 44